Change the Weather History Date:

Sunday, December 2, 2012

  Actual Average Record
Temperature  
Mean Temperature 44 °F -  
Max Temperature 50 °F 31 °F 59 °F (1998)
Min Temperature 39 °F 18 °F -8 °F (1976)
Degree Days  
Heating Degree Days 20    
Moisture  
Dew Point 43 °F    
Average Humidity 97    
Maximum Humidity 100    
Minimum Humidity 87    
Precipitation  
Precipitation 0.00 in - - ()
Sea Level Pressure  
Sea Level Pressure 29.95 in    
Wind  
Wind Speed 8 mph (SW)    
Max Wind Speed 12 mph    
Max Gust Speed -    
Visibility 3 miles    
Events Fog    
Averages and records for this station are not official NWS values.
T = Trace of Precipitation, MM = Missing Value Source: NWS Daily Summary

Daily Weather History Graph

Daily Weather History Graph

Search for Another Location

Airport or City:

Trip Planner

Search our weather history database for the weather conditions in past years. The results will help you decide how hot, cold, wet, or windy it might be!

Date:

Astronomy

Dec. 02, 2012 Rise Set
Actual Time 7:11 AM CST 4:15 PM CST
Civil Twilight 6:38 AM CST 4:48 PM CST
Nautical Twilight 6:02 AM CST 5:24 PM CST
Astronomical Twilight 5:27 AM CST 5:59 PM CST
Moon 8:07 PM CST (12/2) 9:57 AM CST (12/2)
Length of Visible Light 10h 10m
Length of Day
9h 04m
Waning Gibbous, 85% of the Moon is Illuminated
Dec 2
Waning Gibbous
Dec 6
Last Quarter
Dec 13
New
Dec 19
First Quarter
Dec 28
Full

Hourly Weather History & Observations

Time (CST) Temp. Windchill Dew Point Humidity Pressure Visibility Wind Dir Wind Speed Gust Speed Precip Events Conditions
12:15 AM 50.0 °F - 50.0 °F 100% 29.80 in 1.2 mi WSW 10.4 mph - N/A   Overcast
12:35 AM 50.0 °F - 50.0 °F 100% 29.79 in 1.5 mi WSW 10.4 mph - N/A   Overcast
12:55 AM 50.0 °F - 50.0 °F 100% 29.80 in 1.0 mi WSW 10.4 mph - N/A   Overcast
1:15 AM 50.0 °F - 50.0 °F 100% 29.80 in 1.0 mi WSW 9.2 mph - N/A   Overcast
1:35 AM 48.2 °F - 48.2 °F 100% 29.82 in 0.5 mi West 9.2 mph - N/A Fog Fog
1:55 AM 48.2 °F - 48.2 °F 100% 29.82 in 1.0 mi WSW 8.1 mph - N/A   Overcast
2:55 AM 48.2 °F - 48.2 °F 100% 29.83 in 4.0 mi West 8.1 mph - N/A   Overcast
3:15 AM 46.4 °F 42.9 °F 46.4 °F 100% 29.83 in 3.0 mi West 6.9 mph - N/A   Overcast
3:35 AM 46.4 °F 43.5 °F 46.4 °F 100% 29.82 in 3.0 mi West 5.8 mph - N/A   Overcast
5:20 AM 46.4 °F 41.5 °F 44.6 °F 93% 29.86 in 5.0 mi WNW 10.4 mph - N/A   Mostly Cloudy
5:45 AM 46.4 °F 41.5 °F 44.6 °F 93% 29.87 in 5.0 mi WNW 10.4 mph - N/A   Mostly Cloudy
6:45 AM 41.0 °F 36.4 °F 39.2 °F 93% 29.89 in 5.0 mi WNW 6.9 mph - N/A   Mostly Cloudy
7:45 AM 42.8 °F 39.3 °F 42.8 °F 100% 29.91 in 3.0 mi WNW 5.8 mph - N/A   Mostly Cloudy
8:45 AM 42.8 °F 38.6 °F 42.8 °F 100% 29.95 in 3.0 mi WNW 6.9 mph - N/A   Overcast
9:45 AM 42.8 °F 38.0 °F 42.8 °F 100% 29.97 in 5.0 mi WNW 8.1 mph - N/A   Overcast
10:45 AM 42.8 °F 37.5 °F 39.2 °F 87% 29.98 in 5.0 mi NNW 9.2 mph - N/A   Overcast
12:45 PM 42.8 °F 39.3 °F 39.2 °F 87% 29.99 in 5.0 mi WNW 5.8 mph - N/A   Overcast
4:45 PM 41.0 °F 39.0 °F 39.2 °F 93% 30.02 in 5.0 mi Variable 3.5 mph - N/A   Overcast
5:45 PM 41.0 °F - 39.2 °F 93% 30.04 in 5.0 mi Calm Calm - N/A   Overcast
6:45 PM 41.0 °F - 39.2 °F 93% 30.04 in 5.0 mi Calm Calm - N/A   Overcast
7:45 PM 39.2 °F 35.0 °F 39.2 °F 100% 30.04 in 5.0 mi SE 5.8 mph - N/A   Overcast
8:45 PM 39.2 °F 34.2 °F 39.2 °F 100% 30.05 in 4.0 mi SE 6.9 mph - N/A   Overcast
9:45 PM 39.2 °F 35.0 °F 39.2 °F 100% 30.05 in 4.0 mi SSE 5.8 mph - N/A   Overcast
9:55 PM 39.2 °F 33.6 °F 37.4 °F 93% 30.05 in 4.0 mi SSE 8.1 mph - N/A   Overcast
10:15 PM 39.2 °F 33.6 °F 37.4 °F 93% 30.05 in 4.0 mi SSE 8.1 mph - N/A   Overcast
10:35 PM 39.2 °F 34.2 °F 39.2 °F 100% 30.05 in 4.0 mi SSE 6.9 mph - N/A   Overcast
10:45 PM 39.2 °F 35.0 °F 39.2 °F 100% 30.05 in 4.0 mi SSE 5.8 mph - N/A   Overcast
10:55 PM 41.0 °F 36.4 °F 39.2 °F 93% 30.05 in 3.0 mi SSE 6.9 mph - N/A   Overcast
11:15 PM 39.2 °F 35.0 °F 39.2 °F 100% 30.04 in 2.5 mi SSE 5.8 mph - N/A   Overcast
11:35 PM 41.0 °F 35.2 °F 39.2 °F 93% 30.04 in 2.5 mi SE 9.2 mph - N/A   Overcast
11:55 PM 41.0 °F 34.3 °F 41.0 °F 100% 30.02 in 2.0 mi SSE 11.5 mph - N/A   Overcast